Regional Weather Roundup
Issued by NWS

Home | Current Version | Previous Version | Text Only | Print | Product List | Glossary On
Versions: 1 2 3 4 5 6 7 8 9 10 11 12 13 14 15 16 17 18 19 20 21 22 23 24 25 26 27 28 29 30 31 32 33 34 35 36 37 38 39 40 41 42 43 44 45 46 47 48 49 50
000
ASUS45 KBOU 030507
RWRCO

WEATHER ROUNDUP FOR COLORADO
NATIONAL WEATHER SERVICE DENVER/BOULDER CO
1100 PM MDT TUE SEP 02 2014

NOTE: "FAIR" INDICATES FEW OR NO CLOUDS BELOW 12000 FEET WITH NO
SIGNIFICANT WEATHER AND/OR OBSTRUCTIONS TO VISIBILITY.

COZ001>005-013-030-031-030600-
...NORTHWEST COLORADO...

CITY           SKY/WX    TMP DP  RH WIND       PRES   REMARKS
CRAIG          CLEAR     54  43  66 CALM      30.05R
HAYDEN         CLEAR     57  37  47 E10       30.07F
MEEKER         CLEAR     55  40  56 NE5       30.07F
MOUNT WERNER   NOT AVBL
STEAMBOAT SPGS CLEAR     56  39  53 CALM      30.11S
WALDEN         CLEAR     54  32  43 S6        30.18F
$$

COZ006>008-011-030600-
...WEST CENTRAL VALLEYS...

CITY           SKY/WX    TMP DP  RH WIND       PRES   REMARKS
GRAND JUNCTION CLEAR     72  36  26 E12       29.93S
MONTROSE       PTCLDY    68  40  35 SE8       30.05S
EAGLE          MOCLDY    61  39  44 S3        30.13S
RIFLE          CLEAR     62  39  42 CALM      30.02R
DELTA          NOT AVBL
NUCLA          CLEAR     68  32  26 E9        30.08S
$$

COZ017>023-064>068-030600-
...SOUTHWEST COLORADO...

CITY           SKY/WX    TMP DP  RH WIND       PRES   REMARKS
DURANGO        CLEAR     60  36  40 NE3       30.13R
CORTEZ         CLEAR     60  39  45 NE5       30.07S
PAGOSA SPRINGS PTCLDY    60  28  28 NE3       30.22S
TELLURIDE      MOCLDY    57  30  35 SE6       30.33S
WOLF CREEK PAS PTCLDY    50  25  37 SW21G29   30.54F
$$

COZ009-010-012-014-032>034-037-058>063-030600-
...CENTRAL COLORADO...

CITY           SKY/WX    TMP DP  RH WIND       PRES   REMARKS
ASPEN          PTCLDY    56  35  45 S9        30.20F
BUENA VISTA    PTCLDY    59  26  28 W13       30.21S
COPPER MTN     CLEAR     54  27  35 SW12G22   30.52F
BERTHOUD PASS  FAIR      43  43 100 W16       30.55S
COTTONWOOD PAS MOCLDY    63  23  22 W7        30.37S
GUNNISON       CLEAR     54  34  47 CALM      30.23S
KREMMLING      CLEAR     50  32  50 CALM      30.18R
LEADVILLE      CLEAR     45  31  58 CALM      30.35F
MONARCH PASS   PTCLDY    50  28  43 SW15      30.63F
SALIDA         PTCLDY    66  33  30 W9        30.24F
SUNLIGHT       PTCLDY    54  30  40 CALM      30.43F
WILKERSON PASS NOT AVBL
$$

COZ069>075-030600-
...SAN LUIS VALLEY/SANGRE DE CRISTO MOUNTAINS...

CITY           SKY/WX    TMP DP  RH WIND       PRES   REMARKS
ALAMOSA        CLEAR     59  33  37 SW9       30.18S
LA VETA PASS   NOT AVBL
SAGUACHE       CLEAR     59  36  41 NW8       30.22S
$$

COZ035-036-038>040-030600-
...NORTHERN COLORADO FRONT RANGE...

CITY           SKY/WX    TMP DP  RH WIND       PRES   REMARKS
DENVER INTL AP CLEAR     69  49  48 S17       29.98F
DMNS CITY PARK   N/A     67  51  56 SW3       29.98S
AURORA         PTCLDY    67  48  50 S10       30.01S
FRONT RANGE AP CLEAR     72  54  53 S14G20    30.00S
ERIE MUNI ARPT CLEAR     61  51  69 CALM      29.95F
BOULDER MUN AP CLEAR     64  43  45 W3        29.96F
CENTENNIAL     PTCLDY    69  46  43 S14       30.02S
BROOMFIELD     NOT AVBL
FORT COLLINS   CLEAR     64  52  63 CALM      29.96S
LONGMONT       CLEAR     63  48  58 CALM      29.97S
$$

COZ041-046-047-076>085-087-088-030600-
...PIKES PEAK/PALMER DIVIDE AND SOUTHERN FOOTHILLS...

CITY           SKY/WX    TMP DP  RH WIND       PRES   REMARKS
COLO. SPRINGS  CLEAR     68  53  58 E10       30.08F
A. F. ACADEMY  CLEAR     64  49  60 NW5       30.10F
ELLICOTT       NOT AVBL
FALCON         CLEAR     62  51  66 E3        30.14S
FORT CARSON    CLEAR     64  50  60 NW7       30.05S
LIMON          CLEAR     64  54  69 SE9       30.03F
MONUMENT HILL  CLEAR     63  50  63 S18G25    30.11F
TRINIDAD       CLEAR     77  48  35 VRB3      30.04S
$$

COZ042>045-048>051-090-091-030600-
...NORTHEAST COLORADO...

CITY           SKY/WX    TMP DP  RH WIND       PRES   REMARKS
GREELEY ARPT   CLEAR     64  52  63 CALM      29.93F
AKRON          CLEAR     66  54  65 S13G24    29.95S
BURLINGTON     CLEAR     67  60  78 S13       29.97F
WRAY             N/A     70  61  71 S13       29.92S
STERLING       CLEAR     70  59  68 SW10      29.89R
HOLYOKE        CLEAR     66  55  68 S9        29.91S
FORT MORGAN    CLEAR     67  52  59 S8        29.93F
$$

COZ086-089-092>099-030600-
...SOUTHEAST COLORADO...

CITY           SKY/WX    TMP DP  RH WIND       PRES   REMARKS
PUEBLO         CLEAR     73  56  54 E12       29.92F
LA JUNTA       CLEAR     78  60  53 SE9       29.93F
LAMAR          CLEAR     73  62  68 SE10      29.92S
SPRINGFIELD      N/A     69  62  78 S10       30.00F
$$



USA.gov is the U.S. government's official web portal to all federal, state and local government web resources and services.